Tracking 28514 objects as of 23-Feb-2024
HD Live streaming from Space Station
objects crossing your sky now

COSMOS 1862

Track COSMOS 1862 now!
10-day predictions
COSMOS 1862 is classified as:


NORAD ID: 18152
Int'l Code: 1987-055A
Perigee: 521.0 km
Apogee: 540.3 km
Inclination: 82.5 °
Period: 95.1 minutes
Semi major axis: 6901 km
RCS: 8.6433 m2 (large)
Launch date: July 1, 1987
Source: Commonwealth of Independent States (former USSR) (CIS)
Launch site: PLESETSK MISSILE AND SPACE COMPLEX (PKMTR)
Your satellite tracking list
Your tracking list is empty




NASA's NSSDC Master Catalog

Two Line Element Set (TLE):
1 18152U 87055A   24054.55953444  .00005422  00000-0  29505-3 0  9993
2 18152  82.4890  72.3512 0013961 101.8581 258.4217 15.14171997976448
Source of the keplerian elements: AFSPC